Date String (YYYY-MM-DD hh:mm:ss) UTC,Instrument flags,Ambient pressure (hPa),Sample flow (lpm),Bypass flow (lpm),Sample temperature (°C),Ambient temperature (°C),ASC tube jacket temperature (°C),LED temperature (°C),Box temperature (°C),Sample RH (%),Span deviation,Mass concentration (μg/m³),Mass concentration (μg/m³),Mass concentration (μg/m³)
DateTimeUTC,F1_M11,P_M11,Q1_M11,Q2_M11,T1_M11,T2_M11,T3_M11,T4_M11,T5_M11,U1_M11,ZSPAN_M11,X0_M11,X2_M11,X1_M11
2021-09-21 04:00:00,,0836.2,5.00,0.00,30.4,29.6,00.0,39.5,32.1,18.9,0000.0,0010.56,0003.22,0002.23
2021-09-21 04:01:00,,0836.1,5.01,0.00,30.4,29.6,00.0,39.5,32.1,18.8,0000.0,0010.66,0003.20,0002.23
2021-09-21 04:02:00,,0836.1,5.01,0.00,30.4,29.6,00.0,39.5,32.1,18.8,0000.0,0010.97,0003.21,0002.25
2021-09-21 04:03:00,,0836.1,5.00,0.00,30.4,29.6,00.0,39.5,32.2,18.8,0000.0,0010.55,0003.22,0002.25
2021-09-21 04:04:00,,0836.1,4.99,0.00,30.4,29.6,00.0,39.5,32.2,18.8,0000.0,0010.08,0003.24,0002.26
2021-09-21 04:05:00,,0836.1,5.01,0.00,30.4,29.6,00.0,39.5,32.1,18.6,0000.0,0009.35,0003.19,0002.25
2021-09-21 04:06:00,,0836.2,5.00,0.00,30.4,29.6,00.0,39.5,32.1,18.5,0000.0,0008.02,0003.18,0002.24
2021-09-21 04:07:00,,0836.2,4.99,0.00,30.4,29.6,00.0,39.5,32.1,18.5,0000.0,0007.99,0003.17,0002.24
2021-09-21 04:08:00,,0836.2,5.01,0.00,30.4,29.6,00.0,39.5,32.1,18.5,0000.0,0007.94,0003.19,0002.23
2021-09-21 04:09:00,,0836.2,5.00,0.00,30.4,29.6,00.0,39.5,32.2,18.5,0000.0,0008.50,0003.22,0002.24
2021-09-21 04:10:00,,0836.2,4.99,0.00,30.4,29.6,00.0,39.5,32.1,18.5,0000.0,0008.85,0003.21,0002.23
2021-09-21 04:11:00,,0836.2,4.99,0.00,30.4,29.6,00.0,39.5,32.2,18.5,0000.0,0009.05,0003.22,0002.23
2021-09-21 04:12:00,,0836.2,5.00,0.00,30.4,29.6,00.0,39.5,32.2,18.5,0000.0,0008.73,0003.19,0002.24
2021-09-21 04:13:00,,0836.2,5.01,0.00,30.4,29.6,00.0,39.5,32.1,18.5,0000.0,0008.60,0003.17,0002.24
2021-09-21 04:14:00,,0836.2,5.01,0.00,30.4,29.6,00.0,39.5,32.1,18.5,0000.0,0009.10,0003.17,0002.24
2021-09-21 04:15:00,,0836.2,4.99,0.00,30.4,29.6,00.0,39.5,32.1,18.5,0000.0,0009.93,0003.16,0002.24
2021-09-21 04:16:00,,0836.2,5.00,0.00,30.4,29.6,00.0,39.5,32.1,18.5,0000.0,0010.42,0003.14,0002.24
2021-09-21 04:17:00,,0836.2,5.01,0.00,30.4,29.6,00.0,39.5,32.1,18.5,0000.0,0010.39,0003.12,0002.24
2021-09-21 04:18:00,,0836.2,4.99,0.00,30.4,29.6,00.0,39.5,32.1,18.6,0000.0,0010.13,0003.10,0002.25
2021-09-21 04:19:00,,0836.2,5.00,0.00,30.4,29.6,00.0,39.5,32.1,18.6,0000.0,0010.25,0003.09,0002.24
2021-09-21 04:20:00,,0836.2,5.01,0.00,30.4,29.6,00.0,39.5,32.1,18.5,0000.0,0010.12,0003.10,0002.25
2021-09-21 04:21:00,,0836.2,4.99,0.00,30.4,29.6,00.0,39.5,32.1,18.4,0000.0,0009.78,0003.11,0002.26
2021-09-21 04:22:00,,0836.2,5.00,0.00,30.4,29.6,00.0,39.5,32.1,18.4,0000.0,0009.85,0003.16,0002.26
2021-09-21 04:23:00,,0836.2,5.01,0.00,30.4,29.6,00.0,39.5,32.1,18.2,0000.0,0010.38,0003.21,0002.28
2021-09-21 04:24:00,,0836.2,5.01,0.00,30.4,29.6,00.0,39.5,32.1,18.2,0000.0,0010.48,0003.22,0002.27
2021-09-21 04:25:00,,0836.2,4.99,0.00,30.4,29.6,00.0,39.5,32.1,18.1,0000.0,0010.10,0003.23,0002.26
2021-09-21 04:26:00,,0836.2,5.00,0.00,30.4,29.6,00.0,39.5,32.1,18.0,0000.0,0009.58,0003.24,0002.27
2021-09-21 04:27:00,,0836.2,5.00,0.00,30.4,29.1,00.0,39.5,32.0,18.0,0000.0,0009.06,0003.25,0002.26
2021-09-21 04:28:00,,0836.2,5.00,0.00,30.2,26.8,00.0,39.4,31.3,18.2,0000.0,0008.95,0003.25,0002.28
2021-09-21 04:29:00,,0836.2,4.99,0.00,30.0,26.0,00.0,39.4,31.1,18.4,0000.0,0008.93,0003.24,0002.28
2021-09-21 04:30:00,,0836.2,5.02,0.00,29.9,26.2,00.0,39.3,31.1,18.5,0000.0,0008.69,0003.25,0002.30
2021-09-21 04:31:00,,0836.2,4.99,0.00,29.9,26.7,00.0,39.2,31.2,18.7,0000.0,0008.32,0003.23,0002.29
2021-09-21 04:32:00,,0836.2,5.00,0.00,29.8,27.2,00.0,39.2,31.3,18.7,0000.0,0008.80,0003.22,0002.29
2021-09-21 04:33:00,,0836.2,5.00,0.00,29.8,27.6,00.0,39.1,31.3,18.7,0000.0,0008.99,0003.18,0002.27
2021-09-21 04:34:00,,0836.2,4.99,0.00,29.8,27.9,00.0,39.1,31.4,18.7,0000.0,0008.39,0003.16,0002.26
2021-09-21 04:35:00,,0836.2,5.00,0.00,29.8,28.1,00.0,39.1,31.5,18.6,0000.0,0007.96,0003.16,0002.28
2021-09-21 04:36:00,,0836.2,5.01,0.00,29.8,28.3,00.0,39.1,31.5,18.7,0000.0,0008.14,0003.13,0002.29
2021-09-21 04:37:00,,0836.3,4.98,0.00,29.8,28.4,00.0,39.1,31.5,18.6,0000.0,0008.43,0003.11,0002.29
2021-09-21 04:38:00,,0836.2,5.01,0.00,29.9,28.6,00.0,39.1,31.6,18.7,0000.0,0008.94,0003.11,0002.30
2021-09-21 04:39:00,,0836.2,4.99,0.00,29.9,28.7,00.0,39.1,31.6,18.7,0000.0,0009.68,0003.12,0002.31
2021-09-21 04:40:00,,0836.2,4.99,0.00,29.9,28.8,00.0,39.1,31.7,18.7,0000.0,0009.72,0003.07,0002.30
2021-09-21 04:41:00,,0836.3,5.01,0.00,29.9,28.8,00.0,39.0,31.6,18.9,0000.0,0010.14,0003.08,0002.29
2021-09-21 04:42:00,,0836.3,5.01,0.00,29.9,28.9,00.0,39.0,31.6,19.1,0000.0,0010.18,0003.08,0002.29
2021-09-21 04:43:00,,0836.4,4.99,0.00,29.9,28.9,00.0,39.0,31.6,19.2,0000.0,0009.74,0003.09,0002.30
2021-09-21 04:44:00,,0836.4,5.00,0.00,29.9,29.0,00.0,39.1,31.7,19.1,0000.0,0009.28,0003.12,0002.32
2021-09-21 04:45:00,,0836.4,4.99,0.00,29.9,29.0,00.0,39.1,31.7,19.1,0000.0,0009.91,0003.14,0002.33
2021-09-21 04:46:00,,0836.4,5.00,0.00,30.0,29.0,00.0,39.1,31.7,19.1,0000.0,0010.28,0003.10,0002.32
2021-09-21 04:47:00,,0836.5,5.00,0.00,30.0,29.1,00.0,39.1,31.7,19.2,0000.0,0010.80,0003.13,0002.32
2021-09-21 04:48:00,,0836.5,4.99,0.00,30.0,29.1,00.0,39.1,31.8,19.2,0000.0,0010.18,0003.15,0002.34
2021-09-21 04:49:00,,0836.4,5.01,0.00,30.0,29.1,00.0,39.1,31.8,19.2,0000.0,0009.55,0003.14,0002.35
2021-09-21 04:50:00,,0836.5,5.00,0.00,30.0,29.1,00.0,39.1,31.7,19.2,0000.0,0009.10,0003.14,0002.35
2021-09-21 04:51:00,,0836.5,4.99,0.00,30.0,29.1,00.0,39.1,31.8,19.2,0000.0,0009.64,0003.18,0002.36
2021-09-21 04:52:00,,0836.5,5.00,0.00,30.0,29.2,00.0,39.1,31.8,19.3,0000.0,0009.29,0003.21,0002.36
2021-09-21 04:53:00,,0836.5,5.01,0.00,30.0,29.2,00.0,39.1,31.8,19.3,0000.0,0009.09,0003.20,0002.37
2021-09-21 04:54:00,,0836.5,4.99,0.00,30.0,29.2,00.0,39.1,31.8,19.3,0000.0,0009.08,0003.19,0002.38
2021-09-21 04:55:00,,0836.5,4.99,0.00,30.0,29.2,00.0,39.1,31.8,19.2,0000.0,0009.01,0003.21,0002.38
2021-09-21 04:56:00,,0836.5,5.01,0.00,30.1,29.2,00.0,39.1,31.8,19.2,0000.0,0009.07,0003.23,0002.38
2021-09-21 04:57:00,,0836.5,5.01,0.00,30.1,29.2,00.0,39.2,31.8,19.2,0000.0,0009.17,0003.25,0002.40
2021-09-21 04:58:00,,0836.5,5.00,0.00,30.1,29.2,00.0,39.2,31.8,19.3,0000.0,0008.19,0003.22,0002.39
2021-09-21 04:59:00,,0836.5,4.99,0.00,30.1,29.2,00.0,39.2,31.8,19.3,0000.0,0008.00,0003.20,0002.38
